Weather History for Ciudad Victoria, Mexico

Change the Weather History Date:

Wednesday, January 9, 2013

  Actual Average Record
Temperature  
Mean Temperature 62 °F -  
Max Temperature 66 °F 76 °F 89 °F (2005)
Min Temperature 57 °F 53 °F 37 °F (1997)
Degree Days  
Heating Degree Days 4    
Growing Degree Days 12 (Base 50)    
Moisture  
Dew Point 60 °F    
Average Humidity 87    
Maximum Humidity 100    
Minimum Humidity 64    
Precipitation  
Precipitation 0.51 in - - ()
Sea Level Pressure  
Sea Level Pressure 29.98 in    
Wind  
Wind Speed 4 mph ()    
Max Wind Speed 7 mph    
Max Gust Speed -    
Visibility 4.8 miles    
Events Rain , Thunderstorm    
Averages and records for this station are not official NWS values.
T = Trace of Precipitation, MM = Missing Value Source: Averaged Metar Reports

Daily Weather History Graph

Daily Weather History Graph

Search for Another Location

Airport:

Trip Planner

Search our weather history database for the weather conditions in past years. The results will help you decide how hot, cold, wet, or windy it might be!

Date:

Astronomy

Jan. 09, 2013 Rise Set
Actual Time 7:19 AM CST 6:06 PM CST
Civil Twilight 6:55 AM CST 6:30 PM CST
Nautical Twilight 6:27 AM CST 6:58 PM CST
Astronomical Twilight 6:00 AM CST 7:26 PM CST
Moon 5:00 AM CST (1/9) 4:10 PM CST (1/9)
Length of Visible Light 11h 35m
Length of Day
10h 46m
Waning Crescent, 6% of the Moon is Illuminated
Jan 9
Waning Crescent
Jan 11
New
Jan 18
First Quarter
Jan 26
Full
Feb 3
Last Quarter

Hourly Weather History & Observations

Time (CST) Temp. Dew Point Humidity Pressure Visibility Wind Dir Wind Speed Gust Speed Precip Events Conditions
6:06 AM 62.6 °F 60.8 °F 94% 29.91 in 4.0 mi NW 6.9 mph - N/A   Mostly Cloudy
6:47 AM 62.6 °F 60.8 °F 94% 29.90 in 4.0 mi NW 2.3 mph - N/A   Overcast
7:23 AM 62.6 °F 60.8 °F 94% 29.94 in 4.0 mi West 5.8 mph - N/A Thunderstorm Thunderstorm
7:43 AM 62.6 °F 60.8 °F 94% 29.92 in 4.0 mi NNW 5.8 mph - N/A   Light Drizzle
8:41 AM 62.6 °F 62.6 °F 100% 29.97 in 0.5 mi NE 4.6 mph - N/A Rain Light Rain
8:50 AM 62 °F 61 °F 96% 30.02 in 5 mi NNE 2.2 mph - - Rain Light Rain
8:58 AM 62.6 °F 62.6 °F 100% 29.97 in 5.0 mi NNW 5.8 mph - N/A   Overcast
9:49 AM 62.6 °F 62.6 °F 100% 30.00 in 5.0 mi WNW 4.6 mph - N/A   Overcast
10:40 AM 62.6 °F 62.6 °F 100% 29.99 in 5.0 mi NNW 4.6 mph - N/A   Overcast
11:50 AM 64 °F 63 °F 97% 30.04 in 5 mi NNW 2.2 mph - - Rain Rain
11:50 AM 64.4 °F 64.4 °F 100% 30.00 in 5.0 mi North 4.6 mph - N/A   Overcast
12:43 PM 64.4 °F 59.0 °F 83% 29.94 in 5.0 mi NNW 5.8 mph - N/A   Overcast
1:40 PM 66.2 °F 57.2 °F 73% 29.91 in 5.0 mi North 6.9 mph - N/A   Mostly Cloudy
2:40 PM 68.0 °F 57.2 °F 68% 29.95 in 6.0 mi NNW 6.9 mph - N/A   Mostly Cloudy
2:50 PM 66 °F 62 °F 82% 29.96 in 6 mi NNW 2.2 mph - -   Mostly Cloudy
3:41 PM 66.2 °F 53.6 °F 64% 29.92 in 6.0 mi NW 6.9 mph - N/A   Overcast
4:40 PM 66.2 °F 55.4 °F 68% 29.93 in 6.0 mi NNW 6.9 mph - N/A   Overcast
5:43 PM 66.2 °F 57.2 °F 73% 29.96 in 6.0 mi NW 4.6 mph - N/A   Overcast
5:50 PM 65 °F 62 °F 85% 30.01 in 6 mi NNW 2.2 mph - -   Mostly Cloudy
6:41 PM 64.4 °F 55.4 °F 73% 29.99 in 5.0 mi North 4.6 mph - N/A   Overcast
7:42 PM 64.4 °F 57.2 °F 77% 30.03 in 6.0 mi North 4.6 mph - N/A   Mostly Cloudy
8:45 PM 63 °F 60 °F 87% 30.10 in 4 mi NE 2.2 mph - -   Mostly Cloudy
8:47 PM 62.6 °F 59.0 °F 88% 30.03 in 4.0 mi ENE 4.6 mph - N/A   Light Drizzle
11:50 PM 61 °F 60 °F 96% 30.14 in 4 mi Calm Calm - -   Mostly Cloudy